Location: Unspecified
(0.0000°N, 0.0000°E)
Time: 00:14:14
(UTC+00:00)

XW-2D - Visible Passes

Search period start: 07 December 2021 00:00
Search period end: 17 December 2021 00:00
Orbit: 504 x 521 km, 97.5° (Epoch: 06 December)

Date Brightness Start Highest point End Pass type
(mag) Time Alt. Az. Time Alt. Az. Time Alt. Az.
07 Dec ? 05:16:16 10° NNE 05:19:47 38° E 05:23:19 10° S visible
08 Dec ? 05:01:11 10° NE 05:04:08 22° ESE 05:07:04 10° SSE visible
08 Dec ? 18:28:07 10° SW 18:30:02 14° WSW 18:31:56 10° WNW visible
09 Dec ? 04:46:49 10° ENE 04:48:28 13° ESE 04:50:08 10° SE visible
13 Dec ? 05:16:00 10° NNE 05:19:30 38° ESE 05:22:59 10° S visible
14 Dec ? 05:00:54 10° NE 05:03:48 21° E 05:06:42 10° SSE visible
14 Dec ? 18:27:42 10° SW 18:29:40 14° WSW 18:31:40 10° WNW visible
15 Dec ? 04:46:33 10° ENE 04:48:07 12° ESE 04:49:41 10° SE visible
